STARLINK-35965, 66631

Orbit data source: Space-Track

STARLINK-35965, 66631 is a payload satellite owned by SpaceX/Seattle (US) in LEO that was launched on Sun, 23 Nov 2025 UTC via an FALCON 9 launch vehicle from the Air Force Western Test Range (AFWTR). Payload-class satellites include a variety of spacecraft equipped with specific instruments for various scientific and technological missions. These include communications satellites like Starlink; space stations such as the ISS; scientific satellites like the Hubble; Earth observation satellites from companies like Planet Labs, Umbra, and HawkEye 360; GPS; miniature CubeSats for education and research; and military/defense satellites.

Loading next visibility...
Identifier
66631, 2025-271Q
Orbit
LEO
Country
Flag of USUS
Related business
Manufacturer
SpaceX/Seattle
Mission
Operational Commercial Communications
Bus & Motor
STARLINK V2MO, Unknown motor
Mass
575 kg wet, ~530 kg dry
Launch date (UTC)
2025-11-23 (2 months ago)
Launch vehicle
FALCON 9
Launch site
Air Force Western Test Range (AFWTR)
Object type
Payload
Rocket body
Debris
Shape & HBR
Box + 2 Pan, 17.7 m
Radar Cross Section
36.964 m²

Expand to show TLE details & history
Last TLE update: 8 hours ago

TLE from 8 hours ago
0 STARLINK-35965
1 66631U 25271Q   26037.10011192  .00037859  00000-0  12827-2 0  9996
2 66631  53.1582 286.4192 0001401  63.3765 296.7380 15.30229474 12731
Epoch: 2026-02-06T02:24Z
TLE epoch observation values (Epoch: 2026-02-06T02:24:09.669Z)
Latitude
0.00003°
Longitude
114.13609°
Altitude
475.595 km
Speed
7.629 km/s
True Right ascension
19h 05m 40s
True Declination
0° 00' 00"
Sunlit
Object was in daylight at epoch
Visualization orbit readout
Latitude
Unknown
Longitude
Unknown
Altitude
Unknown
Speed
Unknown
Apparent Right ascension
Unknown
Apparent Declination
Unknown
Sunlit
N/A
Visualization observer readout
Local Sidereal Time
12:07:59
Azimuth
Unknown
Elevation
Unknown
Doppler factor
Unknown
Orbital elements
Apogee altitude
476.344 km
Perigee altitude
474.424 km
Semi-major axis
6,853.521 km
Eccentricity
0.00014
Inclination
53.1582°
RAAN
286.4192°
Arg. of periapsis
63.3765°
True anomaly
296.72366°
Mean anomaly
296.738°
Eccentric anomaly
296.73083°
Mean motion
3.82536 °/min
Orbital period
94.11 mins
BSTAR
0.0012827
Loading maneuver chart data...
Computing Atmospheric mass density...
Loading historical data...
Loading historical data...
Loading historical data...
Loading historical data...
Loading historical data...
Loading historical data...
Loading historical data...

Documentation

Showing up to 5 results
|